SL-16 DEB, 23709

Orbit data source: Space-Track

SL-16 DEB, 23709 is space debris in LEO originally from a launch on Tue, 31 Oct 1995 UTC launched from the Tyuratam Missile And Space Complex (TTMTR). Debris objects in space refer to the collection of defunct objects orbiting the Earth. Examples of debris include non-operational satellites, rocket bodies, and fragments generated from explosions, collisions, or faulty payload assembly.

Loading next visibility...
Identifier
23709, 1995-058F
Orbit
LEO
Country
Flag of CISCIS
Related business
Manufacturer
Yuzhnoe
Mission
Spacecraft
Bus & Motor
SEP MOTOR COVER, Unknown motor
Mass
~0 kg wet, ~1 kg dry
Launch date (UTC)
1995-10-31 (31 years ago)
Launch vehicle
Unknown
Launch site
Tyuratam Missile And Space Complex (TTMTR)
Object type
Payload
Rocket body
Debris
Shape & HBR
Unknown shape, 0.1 m
Radar Cross Section
Medium (>0.1 m² and <1 m²)

Expand to show TLE details & history
Last TLE update: 2 days ago

TLE from 2 days ago
0 SL-16 DEB
1 23709U 95058F   26171.19858208  .00000043  00000-0  78963-4 0  9990
2 23709  71.0375  97.3786 0197449 346.8505 126.3994 13.74787561536143
Epoch: 2026-06-20T04:45Z
TLE epoch observation values (Epoch: 2026-06-20T04:45:57.491Z)
Latitude
59.06671°
Longitude
-97.30675°
Altitude
1,079.977 km
Speed
7.274 km/s
True Right ascension
16h 10m 23s
True Declination
58° 55' 17"
Sunlit
Object was in daylight at epoch
Visualization orbit readout
Latitude
Unknown
Longitude
Unknown
Altitude
Unknown
Speed
Unknown
Apparent Right ascension
Unknown
Apparent Declination
Unknown
Sunlit
N/A
Visualization observer readout
Local Sidereal Time
23:20:02
Azimuth
Unknown
Elevation
Unknown
Doppler factor
Unknown
Orbital elements
Apogee altitude
1,125.686 km
Perigee altitude
835.099 km
Semi-major axis
7,358.53 km
Eccentricity
0.01974
Inclination
71.0375°
RAAN
97.3786°
Arg. of periapsis
346.8505°
True anomaly
128.19397°
Mean anomaly
126.3994°
Eccentric anomaly
127.29933°
Mean motion
3.4384 °/min
Orbital period
104.7 mins
BSTAR
0.000078963
Loading maneuver chart data...
Computing Atmospheric mass density...
Loading historical data...
Loading historical data...
Loading historical data...
Loading historical data...
Loading historical data...
Loading historical data...
Loading historical data...

Documentation

Showing up to 5 results
|